Weather reports worldwide

Advertisment
Romorantin, France (7247): temperature & dewpoint: 10.07.2018 18:00:00 - 16.07.2018 18:00:00 (CEST)Romorantin, France (7247): temperature 5cm: 10.07.2018 18:00:00 - 16.07.2018 18:00:00 (CEST)Romorantin, France (7247): temperature -20cm & temperature -100cm: 10.07.2018 18:00:00 - 16.07.2018 18:00:00 (CEST)Romorantin, France (7247): wind speed & gusts: 10.07.2018 18:00:00 - 16.07.2018 18:00:00 (CEST)Romorantin, France (7247): wind direction: 10.07.2018 18:00:00 - 16.07.2018 18:00:00 (CEST)Romorantin, France (7247): reduced air pressure: 10.07.2018 18:00:00 - 16.07.2018 18:00:00 (CEST)Romorantin, France (7247): visibility: 10.07.2018 18:00:00 - 16.07.2018 18:00:00 (CEST)Romorantin, France (7247): precipitation: 10.07.2018 18:00:00 - 16.07.2018 18:00:00 (CEST)
Date & Time tt [°C] td [°C] tt 5cm [°C] tt -20cm [°C] tt -100cm [°C] ff [km/h] ff [kn] fx [km/h] fx [kn] dd ppp [hPa] vv [km] rr [mm]
16.07.2018 18:00:00 29,1 13,3 27,7 23,0 20,1 8 4 28 15 NNW 1012,3 20 0,0
16.07.2018 17:00:00 30,2 12,1 31,0 22,8 20,1 19 10 29 15 NW 1012,2 20 0,0
16.07.2018 16:00:00 29,4 13,6 30,9 22,6 20,1 10 5 27 15 N 1012,3 20 0,0
16.07.2018 15:00:00 29,9 13,6 35,2 22,4 20,1 10 6 26 14 N 1012,4 20 0,0
16.07.2018 14:00:00 29,2 13,8 34,3 22,2 20,0 14 8 26 14 NNW 1012,7 20 0,0
16.07.2018 13:00:00 28,4 14,6 31,4 22,1 20,0 10 5 24 13 NNW 1012,9 20 0,0
16.07.2018 12:00:00 26,5 15,5 33,0 22,0 20,1 11 6 19 10 NNW 1013,1 20 0,0
16.07.2018 11:00:00 24,4 15,9 30,7 21,9 20,0 9 5 18 10 NNW 1012,9 20 0,0
16.07.2018 10:00:00 22,8 15,6 26,3 21,9 20,0 9 5 15 8 NNW 1013,1 20 0,0
16.07.2018 09:00:00 20,3 15,3 20,0 22,0 20,0 7 4 11 6 N 1013,4 20 0,0
16.07.2018 08:00:00 16,2 14,7 11,7 22,1 20,0 2 1 5 3 S 1013,1 20 0,0
16.07.2018 07:00:00 12,7 12,2 10,9 22,3 20,0 0 0 3 2 N 1013,3 0,4 0,0
16.07.2018 06:00:00 12,4 11,6 10,7 22,5 20,0 0 0 4 2 N 1013,1 4,4 0,0
16.07.2018 05:00:00 13,3 12,5 11,1 22,6 20,0 0 0 4 2 N 1013,0 0,5 0,0
16.07.2018 04:00:00 14,7 14,2 12,2 22,8 20,0 0 0 5 3 N 1013,4 1,6 0,0
16.07.2018 03:00:00 14,1 13,3 12,5 23,0 20,0 0 0 0 0 N 1013,8 16 0,0
16.07.2018 02:00:00 15,4 14,8 12,5 23,1 20,0 0 0 8 4 N 1013,7 16 0,0
16.07.2018 01:00:00 17,0 15,9 13,0 23,3 20,0 5 3 13 7 N 1013,7 20 0,0
16.07.2018 00:00:00 15,9 14,1 13,8 23,4 20,0 0 0 4 2 N 1013,8 18 0,0
15.07.2018 23:00:00 18,2 15,3 15,3 23,4 20,0 0 0 11 6 N 1013,9 20 0,0
15.07.2018 22:00:00 20,0 16,4 16,6 23,5 20,0 0 0 4 2 N 1013,2 20 0,0
15.07.2018 21:00:00 27,2 16,2 21,6 23,4 20,0 5 3 14 8 W 1012,6 20 0,0
15.07.2018 20:00:00 30,8 11,2 26,9 23,3 20,0 8 4 20 11 W 1012,4 20 0,0
15.07.2018 19:00:00 31,4 10,7 30,7 23,1 20,0 10 6 22 12 W 1012,1 20 0,0
15.07.2018 18:00:00 31,8 12,1 32,3 22,9 20,0 9 5 22 12 NW 1012,3 20 0,0
15.07.2018 17:00:00 32,0 12,3 31,2 22,7 20,0 7 4 18 10 NW 1012,5 20 0,0
15.07.2018 16:00:00 31,5 13,3 35,3 22,5 20,0 7 4 19 10 NNW 1012,8 20 0,0
15.07.2018 15:00:00 30,1 14,2 31,5 22,3 20,0 2 1 22 12 ENE 1013,3 20 0,0
15.07.2018 14:00:00 30,3 16,3 36,7 22,1 20,0 5 3 16 9 NE 1013,7 19 0,0
15.07.2018 13:00:00 28,8 18,3 35,4 21,9 20,0 6 3 14 8 NNE 1014,3 19 0,0
15.07.2018 12:00:00 27,3 18,0 32,8 21,8 20,0 5 3 10 6 NE 1014,8 20 0,0
15.07.2018 11:00:00 24,4 18,3 32,4 21,7 19,9 5 3 10 6 NNE 1015,1 20 0,0
15.07.2018 10:00:00 22,5 17,6 17,0 21,8 20,0 2 1 6 4 N 1015,1 20 0,0
15.07.2018 09:00:00 17,6 15,9 16,6 21,8 19,9 2 1 6 3 N 1015,4 15 0,0
15.07.2018 08:00:00 17,2 15,7 15,8 22,0 20,0 5 3 9 5 NNE 1015,4 15 0,4
15.07.2018 07:00:00 14,6 14,1 11,9 22,1 19,9 0 0 3 2 N 1015,2 1,1 0,0
15.07.2018 06:00:00 13,4 12,1 11,9 22,3 19,9 0 0 6 3 N 1015,1 0,4 0,0
15.07.2018 05:00:00 15,4 14,9 13,0 22,4 19,9 2 1 5 3 E 1015,1 2,1 0,0
15.07.2018 04:00:00 15,3 14,0 14,0 22,6 19,9 3 2 4 2 E 1015,4 4,1 0,0
15.07.2018 03:00:00 16,1 14,6 14,9 22,7 19,9 0 0 5 3 N 1015,6 14 0,0
15.07.2018 02:00:00 16,1 14,8 14,9 22,8 19,9 0 0 3 1 N 1015,8 12 0,0
15.07.2018 01:00:00 17,2 16,1 15,2 23,0 19,9 0 0 4 2 N 1016,1 19 0,0
15.07.2018 00:00:00 18,1 17,1 15,2 23,0 19,9 4 2 10 5 WNW 1016,0 20 0,0
14.07.2018 23:00:00 18,6 15,8 16,0 23,1 19,9 0 0 3 1 N 1015,9 20 0,0
14.07.2018 22:00:00 21,2 16,8 18,1 23,1 19,9 0 0 4 2 N 1015,6 19 0,0
14.07.2018 21:00:00 26,7 18,8 22,9 23,0 19,9 4 2 6 4 NE 1015,1 20 0,0
14.07.2018 20:00:00 29,6 14,2 27,4 22,8 19,9 3 2 12 7 NE 1015,0 8 0,0
14.07.2018 19:00:00 30,0 12,4 29,9 22,6 19,9 6 3 13 7 NNW 1015,2 20 0,0
14.07.2018 18:00:00 30,4 12,3 32,4 22,4 19,9 6 4 11 6 ENE 1015,6 20 0,0
14.07.2018 17:00:00 30,4 14,5 35,5 22,2 19,9 6 3 17 9 NNE 1016,0 20 0,0
14.07.2018 16:00:00 30,1 13,8 30,4 22,0 19,9 6 3 21 11 NE 1016,5 1,8 0,0
14.07.2018 15:00:00 29,1 14,1 29,8 21,7 19,9 6 3 14 8 S 1016,9 20 0,0
14.07.2018 14:00:00 28,8 15,0 32,8 21,6 19,9 5 3 24 13 NNE 1017,2 20 0,0
14.07.2018 13:00:00 27,9 16,2 35,0 21,4 19,9 6 3 16 9 N 1017,5 20 0,0
14.07.2018 12:00:00 26,2 17,0 31,7 21,3 19,9 6 3 15 8 N 1018,0 20 0,0
14.07.2018 11:00:00 24,1 16,6 28,1 21,2 19,9 3 2 11 6 N 1018,4 20 0,0
14.07.2018 10:00:00 21,9 16,4 24,1 21,2 19,9 5 3 11 6 NE 1018,6 20 0,0
14.07.2018 09:00:00 19,9 15,5 19,6 21,3 19,9 5 3 11 6 NE 1018,6 20 0,0
14.07.2018 08:00:00 - - 12,2 - - 0 0 0 0 N - 19 -
14.07.2018 07:00:00 12,0 11,7 10,6 21,5 19,9 0 0 4 2 N 1018,7 8 0,2
14.07.2018 06:00:00 12,2 11,9 9,8 21,7 19,9 2 1 4 2 NNW 1018,5 0,5 0,0
14.07.2018 05:00:00 12,3 12,0 10,0 21,8 19,9 0 0 3 2 N 1018,9 0,2 0,0
14.07.2018 04:00:00 11,7 10,8 10,4 22,0 19,9 0 0 2 1 N 1019,2 1,2 0,0
14.07.2018 03:00:00 13,0 12,4 11,0 22,2 19,9 0 0 3 2 N 1018,9 0,3 0,0
14.07.2018 02:00:00 14,0 13,5 11,5 22,3 19,9 0 0 3 1 N 1018,9 0,3 0,0
14.07.2018 01:00:00 15,1 14,6 12,1 22,5 19,9 0 0 3 2 N 1018,9 0,5 0,0
14.07.2018 00:00:00 16,4 15,8 13,0 22,6 19,9 0 0 3 2 N 1018,7 19 0,0
13.07.2018 23:00:00 17,0 15,3 14,3 22,6 19,9 0 0 4 2 N 1018,5 11 0,0
13.07.2018 22:00:00 19,4 16,1 16,8 22,6 19,9 0 0 3 2 N 1018,0 20 0,0
13.07.2018 21:00:00 24,9 16,3 21,6 22,5 19,9 0 0 10 6 N 1017,5 20 0,0
13.07.2018 20:00:00 28,3 11,8 26,4 22,4 19,9 5 3 11 6 NNW 1017,3 20 0,0
13.07.2018 19:00:00 28,8 11,8 27,3 22,2 19,9 4 2 11 6 NNW 1017,3 20 0,0
13.07.2018 18:00:00 28,7 12,2 28,5 22,0 19,9 6 3 17 9 NNW 1017,5 20 0,0
13.07.2018 17:00:00 28,3 12,6 29,8 21,8 19,9 3 1 18 10 WNW 1017,7 20 0,0
13.07.2018 16:00:00 28,8 12,7 33,2 21,5 19,9 10 5 17 9 NE 1018,1 20 0,0
13.07.2018 15:00:00 28,1 12,8 28,1 21,3 19,9 8 4 17 9 NE 1018,3 20 0,0
13.07.2018 14:00:00 27,7 14,0 29,3 21,1 19,9 7 4 19 10 N 1018,6 20 0,0
13.07.2018 13:00:00 26,7 13,8 28,8 20,9 19,9 9 5 27 15 NE 1018,9 20 0,0
13.07.2018 12:00:00 26,0 14,8 32,2 20,8 19,9 9 5 23 12 N 1019,1 20 0,0
13.07.2018 11:00:00 25,1 14,8 30,0 20,7 19,9 6 3 14 8 ENE 1018,8 20 0,0
13.07.2018 10:00:00 23,2 15,3 27,1 20,6 19,9 5 3 11 6 NE 1019,0 20 0,0
13.07.2018 09:00:00 20,9 15,2 18,4 20,7 19,9 5 3 12 6 ENE 1019,0 20 0,0
13.07.2018 08:00:00 15,7 15,4 11,9 20,8 19,9 0 0 6 3 N 1018,8 19 0,0
13.07.2018 07:00:00 11,7 11,4 9,7 20,9 19,9 0 0 3 1 N 1019,2 10 0,0
13.07.2018 06:00:00 10,8 10,3 8,9 21,0 19,9 0 0 3 1 N 1019,4 2,0 0,0
13.07.2018 05:00:00 11,1 10,6 9,1 21,2 19,9 0 0 3 1 N 1019,2 1,1 0,0
13.07.2018 04:00:00 10,6 10,0 9,4 21,4 19,9 0 0 3 1 N 1019,3 1,3 0,0
13.07.2018 03:00:00 10,9 10,0 9,4 21,5 19,9 0 0 0 0 N 1019,3 1,1 0,0
13.07.2018 02:00:00 12,4 11,8 10,3 21,7 19,9 0 0 0 0 N 1019,2 0,4 0,0
13.07.2018 01:00:00 12,9 12,0 11,0 21,8 19,9 0 0 0 0 N 1019,3 6 0,0
13.07.2018 00:00:00 13,4 12,1 11,1 21,9 20,0 0 0 2 1 N 1019,1 8 0,0
12.07.2018 23:00:00 14,5 12,0 12,0 21,9 20,0 0 0 3 1 N 1018,7 19 0,0
12.07.2018 22:00:00 18,0 12,7 14,3 21,9 20,0 0 0 6 4 N 1018,2 15 0,0
12.07.2018 21:00:00 23,7 12,7 19,1 21,9 19,9 4 2 11 6 NNE 1017,7 20 0,0
12.07.2018 20:00:00 25,3 11,1 24,2 21,8 19,9 6 3 16 9 NNE 1017,7 20 0,0
12.07.2018 19:00:00 25,9 10,9 24,1 21,6 20,0 8 5 19 10 NE 1017,5 20 0,0
12.07.2018 18:00:00 25,5 12,0 24,1 21,5 20,0 16 9 23 12 E 1017,6 20 0,0
12.07.2018 17:00:00 25,5 11,6 25,2 21,4 19,9 8 5 25 13 ENE 1017,9 20 0,0
12.07.2018 16:00:00 24,4 11,0 25,9 21,2 19,9 10 5 23 13 NNE 1018,0 20 0,0
12.07.2018 15:00:00 25,4 12,6 25,5 21,0 20,0 9 5 22 12 NE 1018,1 20 0,0
12.07.2018 14:00:00 24,0 11,0 25,6 20,9 20,0 10 5 30 16 NNE 1018,2 20 0,0
12.07.2018 13:00:00 23,4 11,4 25,1 20,7 20,0 10 5 23 12 NNE 1018,2 20 0,0
12.07.2018 12:00:00 23,7 12,3 29,1 20,6 20,0 11 6 24 13 ENE 1018,3 20 0,0
12.07.2018 11:00:00 22,3 13,1 28,0 20,5 20,0 8 4 17 9 ENE 1018,4 20 0,0
12.07.2018 10:00:00 20,1 12,6 23,0 20,5 20,0 8 4 14 8 NE 1018,5 20 0,0
12.07.2018 09:00:00 17,8 12,9 16,8 20,5 20,0 8 4 13 7 NE 1018,5 20 0,0
12.07.2018 08:00:00 14,0 13,0 8,4 20,6 20,0 5 3 11 6 NE 1018,4 20 0,0
12.07.2018 07:00:00 8,9 8,6 7,0 20,8 20,0 0 0 5 3 N 1018,3 4,3 0,0
12.07.2018 06:00:00 8,7 8,2 6,9 21,0 20,0 3 2 6 4 NNE 1018,3 0,8 0,2
12.07.2018 05:00:00 9,7 9,4 7,2 21,2 20,0 0 0 3 2 N 1017,9 9 0,0
12.07.2018 04:00:00 9,3 8,7 7,8 21,4 20,0 0 0 5 3 N 1017,9 0,3 0,0
12.07.2018 03:00:00 10,3 9,8 8,1 21,5 20,0 0 0 0 0 N 1018,2 0,3 0,0
12.07.2018 02:00:00 10,8 10,2 8,7 21,7 20,0 0 0 0 0 N 1018,5 0,3 0,0
12.07.2018 01:00:00 11,8 11,2 9,1 21,8 20,0 0 0 0 0 N 1018,4 0,2 0,0
12.07.2018 00:00:00 12,3 11,5 10,1 21,9 20,0 0 0 0 0 N 1018,3 0,4 0,0
11.07.2018 23:00:00 13,3 11,5 11,0 22,0 20,0 0 0 0 0 N 1018,3 2,1 0,0
11.07.2018 22:00:00 16,3 13,4 13,2 21,9 20,0 0 0 4 2 N 1017,9 19 0,0
11.07.2018 21:00:00 21,3 13,2 18,1 21,9 20,0 0 0 13 7 N 1017,7 20 0,0
11.07.2018 20:00:00 23,0 11,1 22,6 21,8 20,0 7 4 22 12 N 1017,8 20 0,0
11.07.2018 19:00:00 23,6 11,0 22,3 21,7 20,0 6 3 18 10 N 1017,6 20 0,0
11.07.2018 18:00:00 21,8 11,5 22,8 21,6 20,0 8 4 21 11 NE 1018,0 20 0,0
11.07.2018 17:00:00 22,4 11,8 22,4 21,5 20,0 8 4 20 11 NNE 1018,4 20 0,0
11.07.2018 16:00:00 21,9 11,6 22,7 21,4 20,0 7 4 22 12 NE 1018,7 20 0,0
11.07.2018 15:00:00 20,6 12,3 23,2 21,3 20,0 7 4 26 14 NNE 1019,0 20 0,0
11.07.2018 14:00:00 20,7 12,1 23,3 21,2 20,0 9 5 23 12 NE 1019,2 20 0,0
11.07.2018 13:00:00 20,3 12,3 21,6 21,2 20,0 6 4 27 15 E 1019,4 20 0,0
11.07.2018 12:00:00 18,4 11,9 21,6 21,2 20,0 10 5 21 11 NE 1019,7 20 0,0
11.07.2018 11:00:00 17,8 11,8 20,7 21,2 19,9 9 5 18 10 NNE 1019,9 20 0,0
11.07.2018 10:00:00 16,9 11,6 20,7 21,2 20,0 7 4 21 11 NE 1020,2 20 0,0
11.07.2018 09:00:00 16,2 11,6 16,3 21,3 20,0 11 6 20 11 NE 1020,3 20 0,0
11.07.2018 08:00:00 13,4 10,9 8,1 21,5 20,0 2 1 6 4 NE 1020,2 20 0,0
11.07.2018 07:00:00 8,3 8,0 6,0 21,7 20,0 0 0 3 2 N 1020,2 1,8 0,0
11.07.2018 06:00:00 8,7 8,4 5,9 21,9 20,0 0 0 3 2 N 1020,0 0,6 0,0
11.07.2018 05:00:00 9,4 9,1 6,2 22,1 20,0 0 0 0 0 N 1020,0 1,3 0,0
11.07.2018 04:00:00 9,1 8,2 7,2 22,3 20,0 0 0 4 2 N 1020,1 0,5 0,0
11.07.2018 03:00:00 10,4 9,3 7,7 22,5 19,9 0 0 4 2 N 1019,8 20 0,0
11.07.2018 02:00:00 11,4 8,3 8,5 22,7 19,9 0 0 9 5 N 1019,8 20 0,0
11.07.2018 01:00:00 16,0 9,0 11,8 22,8 19,9 5 3 19 10 NE 1019,6 20 0,0
11.07.2018 00:00:00 17,4 9,3 14,3 22,9 19,9 9 5 20 11 NE 1019,4 20 0,0
10.07.2018 23:00:00 18,9 9,7 13,7 23,0 19,9 10 6 22 12 NE 1019,0 20 0,0
10.07.2018 22:00:00 20,5 10,3 15,6 23,1 19,9 7 4 12 7 NE 1018,3 20 0,0
10.07.2018 21:00:00 23,3 12,0 19,5 23,0 19,9 5 3 16 9 NNE 1018,1 20 0,0
10.07.2018 20:00:00 25,0 11,2 23,9 22,9 19,9 8 4 23 12 NNE 1017,9 20 0,0
10.07.2018 19:00:00 25,5 11,6 24,4 22,8 19,9 11 6 22 12 NE 1017,7 20 0,0
10.07.2018 18:00:00 26,1 12,2 24,9 22,7 19,9 12 7 27 15 NNE 1017,8 20 0,0

tt = temperature
td = dewpoint
tt 5cm = temperature 5cm
tt -20cm = temperature -20cm
tt -100cm = temperature -100cm
ff = wind speed
fx = gusts
dd = wind direction
ppp = reduced air pressure
vv = visibility
rr = precipitation

Next stations